sat.trackr.live / text

‹ back to catalog

CHUANGXIN 16A (CX-16A)

NORAD 53586 · 2022-102A

PAYLOAD ACTIVE UNKNOWN

§ Identity

Operator
Country
PRC
Launch date
2022-08-23
Launch site
XICLF
Launch vehicle
Mass (kg)
RCS (m²)

External: N2YO · Heavens-Above · Gunter

§ Orbital elements

Epoch: 2026-05-25T04:37:27.671232Z

Period
95.63 min
Inclination
28.9943°
Eccentricity
0.0005012
Mean motion
15.05839959 rev/d
Perigee alt
545.5 km
Apogee alt
552.4 km
Semi-major
6,927.1 km
B*
1.0806e-4
RAAN
116.5038°
Arg perigee
128.3275°
Mean anomaly
231.7775°
Rev number
20,605

§ Raw data

CHUANGXIN 16A (CX-16A)1 53586U 22102A   26145.19268138  .00001765  00000+0  10806-3 0  99962 53586  28.9943 116.5038 0005012 128.3275 231.7775 15.05839959206053

JSON: /api/v1/satellites/53586 · /tle

For live sub-satellite position, see the globe view (requires WebGL).

§ Visibility from observer

Set your observer location to see the next 7 days of passes ≥ 10°. The values pass through the URL so the page stays shareable.

No JS? Fill the form by hand. The geolocation button needs JavaScript.